When you browse on this site, cookies collect data to enhance your experience and personalize the content and advertising you see.
Visit our Privacy Policy to learn more. By continuing to use the site, you agree to this use of cookies and data.
  • In Hungary
  • List of Countries
  • For 7 days
  • Water Temperature
  • Weather Map
  • News
  • Weather Widgets
  • user-avatar
    Login

    Hourly Weather Chaltyr'

    Today, 22 November, Friday

    Time Temperature Precipitation Wind Pressure Humidity
    00:00 -13°C° 0 mm 10 mps 776 mmHg 31%
    01:00 -14°C° 0 mm 10 mps 776 mmHg 33%
    02:00 -14°C° 0 mm 9 mps 776 mmHg 36%
    03:00 -14°C° 0 mm 10 mps 776 mmHg 39%
    04:00 -14°C° 0 mm 9 mps 776 mmHg 41%
    05:00 -14°C° 0 mm 9 mps 776 mmHg 43%
    06:00 -14°C° 0 mm 9 mps 776 mmHg 45%
    07:00 -14°C° 0 mm 9 mps 776 mmHg 45%
    08:00 -14°C° 0 mm 9 mps 776 mmHg 45%
    09:00 -14°C° 0 mm 9 mps 776 mmHg 45%
    10:00 -11°C° 0 mm 9 mps 776 mmHg 41%
    11:00 -10°C° 0 mm 9 mps 776 mmHg 38%
    12:00 -9°C° 0 mm 10 mps 776 mmHg 35%
    13:00 -8°C° 0 mm 9 mps 775 mmHg 33%
    14:00 -8°C° 0 mm 9 mps 775 mmHg 31%
    15:00 -6°C° 0 mm 9 mps 774 mmHg 29%
    16:00 -8°C° 0 mm 9 mps 774 mmHg 32%
    17:00 -8°C° 0 mm 9 mps 774 mmHg 34%
    18:00 -8°C° 0 mm 8 mps 774 mmHg 37%
    19:00 -8°C° 0 mm 8 mps 774 mmHg 37%
    20:00 -10°C° 0 mm 8 mps 775 mmHg 37%
    21:00 -10°C° 0 mm 8 mps 775 mmHg 37%
    22:00 -11°C° 0 mm 8 mps 774 mmHg 37%
    23:00 -11°C° 0 mm 8 mps 774 mmHg 37%

    Tomorrow, 23 November, Saturday

    Time Temperature Precipitation Wind Pressure Humidity
    00:00 -11°C° 0 mm 8 mps 774 mmHg 37%
    01:00 -11°C° 0 mm 8 mps 774 mmHg 38%
    02:00 -11°C° 0 mm 8 mps 774 mmHg 39%
    03:00 -11°C° 0 mm 8 mps 773 mmHg 40%
    04:00 -12°C° 0 mm 8 mps 773 mmHg 41%
    05:00 -12°C° 0 mm 8 mps 773 mmHg 42%
    06:00 -12°C° 0 mm 8 mps 773 mmHg 43%
    07:00 -11°C° 0 mm 8 mps 773 mmHg 42%
    08:00 -11°C° 0 mm 8 mps 773 mmHg 41%
    09:00 -11°C° 0 mm 8 mps 773 mmHg 41%
    10:00 -9°C° 0 mm 9 mps 773 mmHg 38%
    11:00 -8°C° 0 mm 9 mps 772 mmHg 35%
    12:00 -6°C° 0 mm 9 mps 772 mmHg 31%
    13:00 -5°C° 0 mm 9 mps 772 mmHg 29%
    14:00 -4°C° 0 mm 9 mps 771 mmHg 27%
    15:00 -4°C° 0 mm 9 mps 771 mmHg 25%
    16:00 -4°C° 0 mm 8 mps 771 mmHg 26%
    17:00 -5°C° 0 mm 8 mps 771 mmHg 28%
    18:00 -6°C° 0 mm 8 mps 771 mmHg 29%
    19:00 -7°C° 0 mm 8 mps 771 mmHg 31%
    20:00 -7°C° 0 mm 8 mps 771 mmHg 32%
    21:00 -7°C° 0 mm 8 mps 771 mmHg 34%
    22:00 -8°C° 0 mm 8 mps 771 mmHg 36%
    23:00 -8°C° 0 mm 8 mps 771 mmHg 39%

    Day after tomorrow, 24 November, Sunday

    Time Temperature Precipitation Wind Pressure Humidity
    00:00 -8°C° 0 mm 8 mps 771 mmHg 41%
    01:00 -8°C° 0 mm 8 mps 770 mmHg 42%
    02:00 -8°C° 0 mm 8 mps 770 mmHg 44%
    03:00 -8°C° 0 mm 8 mps 770 mmHg 45%
    04:00 -8°C° 0 mm 8 mps 770 mmHg 47%
    05:00 -8°C° 0 mm 8 mps 770 mmHg 48%
    06:00 -8°C° 0 mm 8 mps 769 mmHg 50%
    07:00 -8°C° 0 mm 8 mps 770 mmHg 51%
    08:00 -8°C° 0 mm 8 mps 770 mmHg 51%
    09:00 -7°C° 0 mm 8 mps 770 mmHg 52%
    10:00 -6°C° 0 mm 8 mps 770 mmHg 50%
    11:00 -4°C° 0 mm 8 mps 769 mmHg 49%
    12:00 -2°C° 0 mm 8 mps 769 mmHg 48%
    13:00 -2°C° 0 mm 8 mps 769 mmHg 47%
    14:00 -1°C° 0 mm 8 mps 769 mmHg 46%
    15:00 -1°C° 0 mm 8 mps 768 mmHg 45%
    16:00 -1°C° 0 mm 8 mps 768 mmHg 45%
    17:00 -2°C° 0 mm 8 mps 769 mmHg 45%
    18:00 -3°C° 0 mm 7 mps 769 mmHg 45%
    19:00 -4°C° 0 mm 7 mps 769 mmHg 45%
    20:00 -4°C° 0 mm 7 mps 768 mmHg 46%
    21:00 -4°C° 0 mm 7 mps 768 mmHg 46%
    22:00 -6°C° 0 mm 7 mps 768 mmHg 48%
    23:00 -6°C° 0 mm 7 mps 768 mmHg 50%

    25 November, Monday

    Time Temperature Precipitation Wind Pressure Humidity
    00:00 -6°C° 0 mm 7 mps 768 mmHg 52%
    01:00 -6°C° 0 mm 7 mps 768 mmHg 53%
    02:00 -7°C° 0 mm 7 mps 767 mmHg 54%
    03:00 -7°C° 0 mm 7 mps 767 mmHg 55%
    04:00 -7°C° 0 mm 7 mps 767 mmHg 58%
    05:00 -7°C° 0 mm 7 mps 767 mmHg 60%
    06:00 -7°C° 0 mm 7 mps 767 mmHg 62%
    07:00 -7°C° 0 mm 7 mps 767 mmHg 62%
    08:00 -6°C° 0 mm 8 mps 767 mmHg 63%
    09:00 -6°C° 0 mm 8 mps 767 mmHg 63%
    10:00 -5°C° 0 mm 8 mps 767 mmHg 61%
    11:00 -2°C° 0 mm 8 mps 766 mmHg 58%
    12:00 -1°C° 0 mm 8 mps 766 mmHg 56%
    13:00 0°C° 0 mm 8 mps 766 mmHg 55%
    14:00 0°C° 0 mm 8 mps 765 mmHg 53%
    15:00 +1°C° 0 mm 8 mps 765 mmHg 52%
    16:00 0°C° 0 mm 7 mps 765 mmHg 53%
    17:00 -1°C° 0 mm 7 mps 765 mmHg 54%
    18:00 -2°C° 0 mm 7 mps 765 mmHg 54%
    19:00 -2°C° 0 mm 7 mps 765 mmHg 55%
    20:00 -3°C° 0 mm 7 mps 765 mmHg 56%
    21:00 -3°C° 0 mm 7 mps 765 mmHg 56%
    22:00 -4°C° 0 mm 7 mps 765 mmHg 57%
    23:00 -4°C° 0 mm 7 mps 765 mmHg 59%

    26 November, Tuesday

    Time Temperature Precipitation Wind Pressure Humidity
    00:00 -4°C° 0 mm 6 mps 764 mmHg 60%
    01:00 -6°C° 0 mm 7 mps 764 mmHg 63%
    02:00 -6°C° 0 mm 7 mps 764 mmHg 66%
    03:00 -6°C° 0 mm 7 mps 764 mmHg 69%
    04:00 -6°C° 0 mm 7 mps 763 mmHg 72%
    05:00 -6°C° 0 mm 7 mps 763 mmHg 74%
    06:00 -6°C° 0 mm 7 mps 763 mmHg 76%
    07:00 -4°C° 0 mm 7 mps 763 mmHg 76%
    08:00 -4°C° 0 mm 7 mps 763 mmHg 76%
    09:00 -3°C° 0 mm 7 mps 763 mmHg 76%
    10:00 -2°C° 0 mm 7 mps 763 mmHg 74%
    11:00 -1°C° 0 mm 8 mps 763 mmHg 73%
    12:00 0°C° 0 mm 8 mps 762 mmHg 72%
    13:00 +1°C° 0 mm 8 mps 762 mmHg 69%
    14:00 +2°C° 0 mm 8 mps 761 mmHg 67%
    15:00 +4°C° 0 mm 8 mps 761 mmHg 65%
    16:00 +3°C° 0 mm 7 mps 761 mmHg 66%
    17:00 +3°C° 0 mm 7 mps 761 mmHg 68%
    18:00 +3°C° 0 mm 7 mps 761 mmHg 70%
    19:00 +2°C° 0 mm 7 mps 761 mmHg 71%
    20:00 0°C° 0 mm 7 mps 761 mmHg 72%
    21:00 0°C° 0 mm 7 mps 761 mmHg 73%
    22:00 0°C° 0 mm 7 mps 761 mmHg 74%
    23:00 -1°C° 0 mm 7 mps 761 mmHg 75%

    27 November, Wednesday

    Time Temperature Precipitation Wind Pressure Humidity
    00:00 -1°C° 0 mm 7 mps 761 mmHg 76%
    01:00 -1°C° 0 mm 7 mps 760 mmHg 77%
    02:00 -1°C° 0 mm 6 mps 760 mmHg 78%
    03:00 -1°C° 0 mm 6 mps 760 mmHg 79%
    04:00 -1°C° 0 mm 6 mps 760 mmHg 81%
    05:00 -1°C° 0 mm 6 mps 760 mmHg 82%
    06:00 -1°C° 0 mm 6 mps 760 mmHg 84%
    07:00 +1°C° 0 mm 6 mps 760 mmHg 83%
    08:00 +1°C° 0 mm 6 mps 760 mmHg 81%
    09:00 +1°C° 0 mm 6 mps 761 mmHg 79%
    10:00 +1°C° 0 mm 6 mps 761 mmHg 76%
    11:00 +2°C° 0 mm 6 mps 761 mmHg 72%
    12:00 +3°C° 0 mm 6 mps 761 mmHg 69%
    13:00 +3°C° 0 mm 5 mps 761 mmHg 68%
    14:00 +3°C° 0 mm 5 mps 760 mmHg 68%
    15:00 +5°C° 0 mm 5 mps 760 mmHg 68%
    16:00 +3°C° 0.1 mm 5 mps 760 mmHg 71%
    17:00 +3°C° 0.1 mm 5 mps 761 mmHg 75%
    18:00 +2°C° 0.1 mm 5 mps 761 mmHg 79%
    19:00 +2°C° 0 mm 5 mps 761 mmHg 81%
    20:00 +2°C° 0 mm 5 mps 761 mmHg 83%
    21:00 +3°C° 0 mm 4 mps 761 mmHg 86%
    22:00 +3°C° 0 mm 4 mps 761 mmHg 86%
    23:00 +3°C° 0 mm 4 mps 761 mmHg 87%
    Show more